CAPE
903 1365 2189 2071 1687 1688 1404 1639 2067 2426 2682 2820 2980 3100 3128 3075 2861 3356 3198 3047 2847 2879 2595 2502 1414 1576 2179 2373 2626 2539 2545 2532 2476 2100 2228 2161 2063 2204 2314 2120 1924 1797 2368
970 1287 2276 1996 1636 1804 1647 1966 2007 2495 2753 2384 2588 2537 2361 2254 2089 2614 2478 2112 2762 2790 2675 2422 1429 1726 2259 2680 2274 2371 2307 2486 2677 2005 2073 1841 1713 1781 2300 1997 2130 2093 2457
772 1306 1667 1917 1737 1650 1818 1768 1840 2050 2738 2418 2549 2363 1993 1776 2370 2522 2205 1961 2016 2823 2403 1681 1635 1857 1944 2234 2572 2456 2250 2042 2083 2160 2349 1496 1425 1959 2176 1926 2189 2213 2117
610 942 1402 1909 1897 1762 2070 1932 2115 1721 2215 2842 2626 2398 2033 1837 1986 1976 2459 2445 2163 1935 2213 2132 1958 2601 2516 2368 2498 2296 2216 1649 1705 1379 1228 1406 1380 2035 1682 2161 2018 2035 2158
300 930 1411 2230 2142 1902 1625 1915 2160 2083 2050 2605 2363 2010 1814 1505 1438 1372 1380 1578 2279 2349 1972 1901 2250 2464 2383 2328 1969 1909 1957 1698 520 1004 932 1231 1503 2003 1983 1897 1927 1973 2043
510 1122 2235 2354 1747 1935 1695 1900 1733 1873 2090 2560 2572 2118 1814 1377 1398 1635 1823 2120 1689 1505 2050 2034 1718 1829 2128 2025 1868 1554 1616 457 1342 716 975 1567 1506 1947 1940 2070 2052 1910 2021
1065 1373 1568 2293 2378 2489 2202 2092 2154 2041 2129 2221 2415 1840 1595 1485 1556 1471 1090 949 985 1176 1484 1300 1298 1526 1610 1689 1061 1017 650 180 419 877 1193 1169 1554 2476 2073 2228 1913 2063 1997
1208 1562 1500 2151 2261 2955 2335 2242 2623 2356 1962 1869 1993 1597 1395 1157 1315 706 865 1223 1397 1307 1193 1092 1072 1232 1205 1173 416 901 769 494 240 523 983 1287 2247 2501 1735 1843 1819 2069 1896
963 1244 1528 1249 1140 2231 2731 2343 2099 2191 1798 1381 770 323 247 497 678 1050 972 749 663 795 1129 1365 1186 1240 1431 943 640 552 538 472 146 468 656 1142 2328 2074 1765 1848 1782 1650 1623
900 1180 1298 1230 1058 1837 1839 2142 1805 1601 1170 614 638 354 266 537 233 723 446 341 458 533 609 710 1407 1220 1240 1252 731 1079 636 325 85 289 593 716 1782 1742 1849 1953 1822 1784 1862
711 776 813 1066 1549 1686 1750 1544 1971 1396 895 911 823 490 207 36 139 317 297 67 103 224 499 763 1031 1228 1255 1300 1294 859 766 283 75 172 264 1102 1858 1593 1584 1841 1945 1857 2001
426 525 573 736 1006 1269 1537 1406 1281 969 870 412 87 12 0 0 1 79 63 117 251 624 878 890 1025 1041 1180 809 878 714 670 213 165 50 153 1350 1807 650 1158 1587 1941 1939 1912
423 478 616 769 893 876 937 1266 1229 1023 792 429 35 0 0 0 0 0 0 8 77 446 444 541 799 810 1025 773 499 758 557 318 200 87 303 997 1150 1130 849 716 1706 2055 1959
433 483 468 579 779 634 1106 1168 1146 1166 842 582 76 1 0 0 0 0 0 14 160 161 320 507 286 463 860 592 352 492 320 505 420 260 182 1078 588 730 698 720 1141 1589 1940
630 664 441 727 687 736 613 804 953 951 772 424 202 148 117 6 3 0 8 103 298 261 247 331 623 558 760 551 666 552 170 362 247 185 308 840 1043 1131 790 896 1010 1248 1747
672 759 734 667 740 910 876 716 789 608 371 407 442 188 259 11 0 0 1 41 122 83 171 475 601 471 407 65 500 515 487 276 51 103 92 225 905 694 1062 960 1489 1116 1118
323 563 673 828 900 772 659 710 777 681 556 689 532 805 601 342 182 211 65 0 22 133 285 597 884 756 685 422 390 769 491 534 398 229 123 214 331 1261 1172 1088 1853 1985 1927
279 509 421 946 904 602 665 736 985 740 797 668 665 665 1016 801 454 345 57 25 85 327 789 688 701 392 419 632 560 536 573 601 628 356 251 294 630 831 1303 1511 1908 2086 1498
242 442 509 466 684 620 785 1095 1131 773 897 715 640 739 830 836 380 91 44 3 41 110 450 473 839 800 513 498 495 490 590 743 566 626 408 383 551 745 588 1580 1873 2019 1227
147 312 285 359 443 840 1099 1165 1022 1205 861 635 637 636 720 787 352 109 62 11 16 287 641 629 519 404 178 505 1351 626 622 890 621 737 625 466 436 647 585 631 1233 1343 2091
184 304 35 170 670 883 980 999 952 945 801 622 531 396 419 441 364 311 159 0 0 99 343 630 539 659 228 426 568 433 107 283 703 572 300 605 711 621 747 517 540 846 1349
236 467 452 747 830 971 1089 1059 940 990 1123 816 672 450 313 170 254 411 111 308 16 59 308 943 616 563 21 0 428 322 114 215 367 620 540 659 769 609 643 549 551 647 789
83 328 643 915 1003 1101 1262 1212 1104 1199 976 804 532 304 542 448 375 526 102 297 642 613 307 671 1085 684 218 475 403 408 123 23 135 324 325 237 505 518 545 698 686 646 456
309 511 746 1222 1181 1294 1419 1369 944 914 720 550 522 555 531 386 591 379 158 17 671 985 1045 530 1352 486 618 482 347 458 346 137 127 78 98 115 172 403 629 610 636 585 459
936 1149 1266 1449 1590 1642 1669 1615 1209 794 970 982 311 124 125 415 637 526 514 701 545 637 859 816 866 982 1013 820 365 26 328 69 78 117 13 40 196 249 431 733 550 637 588
1071 1226 1540 1689 1970 1994 1916 1637 827 1049 1402 1333 1261 846 747 1143 927 699 633 559 844 1138 1043 1189 1484 1188 848 1008 887 439 352 110 88 107 91 105 98 355 462 535 625 558 660
CIN
0 0 0 0 0 0 0 0 0 0 0 0 0 0 0 0 0 0 0 0 0 0 0 0 -26 -14 0 0 0 0 0 0 0 -2 0 0 0 -1 0 0 0 0 0
-9 0 0 0 0 0 0 0 0 0 0 0 0 0 0 0 0 0 0 0 0 0 0 0 -19 -7 0 0 0 0 0 0 0 -3 0 0 0 0 0 0 0 0 0
-35 0 0 0 0 0 0 0 0 0 0 0 0 0 0 0 0 0 0 0 0 0 0 -1 -5 -2 -1 0 0 0 0 -1 0 0 -1 -10 -3 0 0 0 0 0 0
-87 -16 0 0 0 0 0 0 0 0 0 0 0 0 0 0 0 0 0 0 0 0 0 0 0 0 0 -3 0 0 -1 -6 -2 -7 -9 -6 -1 0 0 0 0 0 0
-116 -28 0 0 0 0 0 0 0 0 0 0 0 0 0 0 0 -2 -3 0 0 0 -1 0 0 0 -2 -4 -9 -15 -6 -5 -30 -17 -7 -6 -1 0 0 0 0 0 0
-76 -24 0 0 0 0 0 0 0 0 0 0 0 0 0 -1 -1 0 0 0 0 0 0 0 -3 -6 -3 -2 -7 -9 -7 -24 -8 -29 -16 -25 -3 0 0 0 0 0 0
-43 -12 0 0 0 0 0 0 0 0 0 0 0 0 0 0 0 0 -2 -5 -4 -1 0 -3 -5 -6 -5 -4 -6 -13 -21 -23 -14 -27 -44 -46 -3 0 0 0 0 0 0
-56 -12 0 0 0 0 0 0 0 0 0 0 0 0 -1 -4 -1 -12 -7 0 0 -1 -1 -1 -6 -8 -7 -4 -21 -13 -16 -9 -27 -42 -37 -27 -6 0 0 0 0 0 0
-100 -52 -2 -1 -3 0 0 0 0 0 0 0 -24 -46 -49 -34 -20 -2 -3 -5 -9 -8 -1 -1 -1 -4 0 -2 -9 -17 -12 -10 -33 -40 -58 -25 -5 0 0 0 0 0 0
-92 -66 -25 -2 -6 -1 -1 0 0 0 -5 -30 -42 -54 -50 -33 -43 -12 -20 -28 -31 -15 -15 -11 -1 0 0 0 -9 -1 -14 -11 -70 -69 -24 -48 -13 -4 0 0 0 0 0
-66 -76 -49 -12 -1 -1 0 -2 -2 0 0 -1 -14 -32 -55 -74 -57 -30 -27 -44 -40 -22 -13 -12 -8 -3 0 0 -1 -18 -9 -27 -42 -43 -72 -19 -6 -5 -1 -1 -2 0 0
-89 -81 -71 -41 -12 -3 -1 -1 -2 -3 -7 -26 -74 -37 0 0 -41 -69 -61 -38 -19 -10 -8 -11 -6 -11 -3 -24 -26 -40 -31 -39 -17 -106 -48 -7 -1 -1 0 0 0 0 -1
-98 -95 -68 -45 -23 -18 -12 -7 -4 -5 -5 -28 -110 0 0 0 -29 -25 0 -49 -41 -37 -59 -40 -24 -32 -75 -38 -111 -59 -82 -29 -83 -83 -46 -19 -4 -2 0 -5 -1 0 0
-74 -76 -59 -59 -26 -23 -21 -19 -30 -12 -17 -25 -107 -9 0 0 0 0 0 -55 -58 -37 -39 -34 -35 -73 -35 -79 -33 -62 -96 -49 -42 -67 -45 -13 -19 -3 -1 -5 -4 0 0
-57 -58 -52 -30 -28 -15 -44 -31 -53 -35 -30 -45 -52 -47 -55 -60 -38 0 -70 -74 -42 -56 -51 -50 -61 -35 -33 -43 -47 -56 -87 -66 -97 -93 -84 -9 -11 -4 -5 -2 0 -1 0
-33 -34 -53 -35 -29 -32 -52 -47 -44 -55 -57 -48 -76 -68 -45 -102 0 0 -19 -36 -21 -108 -68 -62 -25 -35 -23 -13 -87 -56 -53 -47 -90 -160 -142 -60 -11 -14 -3 0 0 0 -2
-27 -24 -42 -49 -50 -37 -89 -83 -43 -48 -48 -54 -60 -43 -18 -48 -73 -49 -48 0 -31 -23 -15 -16 -46 -9 -48 -28 -28 -73 -29 -29 -22 -71 -50 -93 -37 -5 -1 0 0 0 0
-63 -38 -25 -20 -43 -72 -99 -94 -67 -56 -22 -44 -66 -64 -31 -11 -36 -52 -68 -116 -19 -46 -50 -48 -26 -71 -18 -54 -32 -38 -90 -84 -23 -62 -63 -80 -77 -39 -3 0 0 0 0
-35 -16 -19 -43 -27 -58 -82 -62 -50 -68 -22 -31 -61 -48 -48 -26 -48 -88 -98 -20 -15 -37 -74 -28 -23 -60 -42 -47 -11 -23 -34 -38 -56 -43 -27 -89 -121 -91 -65 -5 0 0 -1
-181 -20 -29 -61 -31 -21 -44 -39 -51 -16 -16 -31 -74 -65 -39 -25 -61 -108 -133 -139 -151 -53 -40 -24 -55 -45 -22 -37 -28 -24 -22 -39 -36 -46 -88 -33 -119 -119 -87 -94 -27 -3 0
-37 -36 -172 -87 -80 -28 -42 -45 -34 -34 -27 -10 -9 -54 -92 -96 -103 -82 -58 0 -1 -40 -31 -23 -57 -52 -26 -121 -44 -14 -65 -18 -26 -17 -107 -54 -102 -99 -75 -107 -36 -66 -21
-25 -38 -28 -8 -40 -44 -30 -34 -35 -30 -20 -53 -22 -48 -118 -106 -85 -52 -77 -37 -100 -105 -46 -26 -35 -50 -87 0 -108 -32 -61 -29 -39 -18 -5 -86 -35 -43 -53 -80 -52 -114 -90
-186 -137 -25 -22 -63 -58 -42 -28 -23 -16 -29 -30 -69 -48 -64 -66 -61 -28 -47 -45 -13 -4 -41 -34 -17 -57 -76 -52 -75 -11 -21 -51 -36 -113 -13 -19 -19 -38 -51 -74 -90 -51 -100
-136 -84 -28 -40 -41 -24 -40 -29 -35 -44 -39 -84 -78 -87 -70 -79 -33 -22 -21 -69 -21 -6 -10 -51 -20 -40 -48 -18 -28 -60 -45 -43 -69 -76 -102 -69 -18 -10 -26 -59 -58 -59 -93
-34 -28 -22 -33 -48 -22 -21 -21 -48 -87 -52 -70 -137 -172 -183 -104 -58 -37 -29 -24 -31 -40 -25 -28 -46 -29 -27 -21 -31 -143 -65 -166 -197 -82 -132 -182 -112 -21 -62 -12 -6 -36 -43
-32 -44 -76 -68 -24 -35 -22 -40 -145 -99 -43 -66 -55 -68 -82 -45 -34 -63 -30 -63 -18 -8 -15 -14 -11 -14 -19 -29 -28 -25 -40 -55 -54 -153 -158 -112 -153 -65 -48 -16 -17 -84 -50
Wind_Speed
15 14 16 15 15 15 16 12 10 7 10 12 11 12 14 13 12 13 11 11 11 12 13 13 15 14 15 16 16 17 17 19 18 19 18 18 16 15 18 22 20 15 19
20 17 20 17 16 15 16 15 11 10 14 14 14 13 13 13 12 12 12 12 11 15 15 17 17 15 16 17 15 15 18 16 16 19 17 18 17 16 20 22 19 15 19
21 18 18 21 19 18 16 15 13 13 15 17 15 15 15 14 12 12 12 12 11 12 15 15 19 18 17 17 17 16 19 19 17 20 19 8 12 21 23 19 20 18 17
22 18 18 23 22 21 21 18 15 15 17 18 17 16 15 14 14 12 13 13 10 11 11 13 16 16 14 14 16 17 17 18 14 10 11 14 15 19 19 19 17 15 15
22 19 19 24 23 21 21 19 18 18 17 19 17 16 15 14 15 13 11 11 10 10 12 10 12 15 15 7 7 11 14 11 7 11 16 17 13 15 16 17 15 13 12
22 19 22 24 25 22 22 20 20 20 17 17 15 15 13 14 13 11 9 8 9 9 8 7 9 11 12 9 3 6 8 5 9 8 9 13 12 14 13 16 15 13 12
23 19 18 23 23 22 21 18 20 20 18 18 16 15 12 11 10 9 6 6 7 6 6 5 5 7 10 7 3 3 5 0 7 5 6 7 8 11 13 14 15 14 11
25 21 18 22 22 21 19 17 18 20 22 22 21 20 16 11 8 7 5 2 5 6 7 8 7 9 9 6 9 10 3 4 3 6 6 5 8 8 12 13 13 13 11
26 22 16 15 18 19 17 16 17 20 22 24 24 24 16 12 5 1 4 4 3 5 8 8 8 11 10 10 13 12 8 9 5 3 3 5 8 15 13 12 12 12 10
23 20 18 13 10 9 10 17 17 19 21 21 17 17 11 12 6 1 3 3 4 5 7 7 9 8 11 10 10 11 10 12 nan 6 6 6 7 12 16 14 12 11 11
23 24 21 16 9 9 9 11 16 20 20 25 20 25 7 nan 8 6 5 nan 8 7 11 10 9 8 11 14 11 15 11 6 nan 4 5 10 12 12 11 11 11 10 10
24 22 21 15 10 10 10 8 7 9 8 12 nan nan nan nan nan nan nan 9 13 11 13 14 11 11 11 6 9 8 6 6 5 nan 7 15 12 9 8 7 9 7 8
25 19 17 14 10 10 8 7 4 4 6 6 nan nan nan nan nan nan nan nan nan 7 8 9 9 8 14 7 7 10 11 11 6 nan 14 20 10 9 3 5 6 4 5
24 22 16 16 12 8 10 8 7 6 6 7 nan nan nan nan nan nan nan nan 5 6 6 6 6 8 8 7 6 5 2 3 17 13 15 22 6 3 1 6 4 1 3
22 18 14 10 9 8 10 8 7 6 5 5 7 10 9 nan nan nan nan 5 6 6 4 5 4 2 8 9 10 14 12 6 10 15 13 29 17 11 15 9 5 2 3
17 18 18 11 10 9 10 9 7 5 3 6 8 9 12 nan nan nan nan nan 7 nan 5 6 4 5 4 nan 7 5 10 14 nan 19 nan 15 24 20 13 9 9 10 8
20 15 17 14 12 10 10 10 9 7 8 5 7 9 10 12 9 6 nan nan nan 6 9 7 3 6 3 5 6 6 4 12 16 17 15 9 13 17 14 14 13 12 12
14 24 14 14 14 10 8 9 9 8 10 8 11 9 10 10 8 4 nan nan nan 9 8 5 4 5 4 4 6 5 8 13 15 14 6 6 10 8 10 14 13 11 13
13 8 17 22 13 10 7 7 10 8 10 13 14 14 10 13 10 nan nan nan nan 10 5 2 6 4 7 5 3 5 6 8 9 8 10 3 8 8 5 12 15 13 15
3 9 14 13 8 4 5 7 7 6 8 13 14 14 17 17 9 5 nan nan nan 8 5 6 5 4 2 5 2 6 4 5 3 6 8 4 7 5 2 5 6 5 12
2 5 nan 4 5 7 7 7 4 6 8 11 13 14 17 22 8 7 8 nan nan nan 5 1 5 6 3 1 5 2 3 5 2 2 3 3 3 3 2 2 3 2 3
7 7 8 8 5 6 4 2 2 5 7 14 17 18 17 11 2 3 6 8 nan nan 8 5 4 5 nan nan 4 2 4 8 6 6 6 7 3 6 3 3 1 3 2
nan 11 10 5 3 1 3 4 8 6 6 11 14 8 10 5 3 4 4 8 7 5 3 5 4 4 5 6 12 5 5 nan 8 8 10 10 6 7 6 4 3 1 3
6 10 9 2 4 3 10 5 3 6 13 11 8 9 15 7 4 5 9 nan 9 8 6 3 7 6 4 2 4 8 8 8 9 nan nan 16 11 10 6 6 5 5 5
13 8 4 4 4 2 3 7 10 12 12 11 8 13 15 9 7 8 10 9 7 6 7 5 7 5 4 3 8 nan 13 nan nan 12 nan nan 14 14 9 7 9 8 7
12 6 6 7 7 5 9 12 11 14 14 16 21 13 10 12 15 13 12 13 7 4 4 4 5 5 4 5 7 10 11 12 nan 12 nan 7 nan 9 8 8 11 15 14
Wind_Direction
1 351 333 323 316 317 309 301 291 283 270 266 273 283 284 288 292 295 299 304 314 320 318 311 301 300 295 291 285 285 286 282 277 273 270 271 279 281 273 272 272 280 280
342 341 326 317 314 313 308 302 298 290 282 277 275 279 287 296 298 302 309 306 306 320 322 320 312 306 301 292 288 282 283 284 286 292 279 274 279 296 274 263 266 268 274
338 335 324 319 316 310 305 301 299 296 291 290 291 294 300 302 304 311 309 309 312 319 324 326 323 311 301 296 292 289 288 288 296 296 285 275 264 281 278 261 264 267 266
330 336 329 324 321 317 314 314 307 306 300 299 299 296 299 304 304 302 307 310 318 324 328 334 350 344 324 304 297 304 303 300 290 284 275 269 278 272 272 258 260 264 270
328 330 332 328 322 318 318 317 309 309 305 301 297 303 307 305 308 307 305 301 309 334 329 338 347 357 2 347 322 311 313 303 264 264 273 266 261 268 270 263 263 262 265
319 321 329 328 325 322 322 321 315 307 306 303 294 297 294 299 301 306 304 300 311 318 332 354 357 6 17 31 358 314 312 294 277 251 266 266 239 276 283 274 267 263 262
314 317 325 327 327 327 323 317 322 317 307 294 298 293 293 286 302 294 303 305 315 324 354 17 35 19 12 4 3 0 345 245 244 282 264 288 218 259 268 268 270 264 261
318 317 321 327 332 330 328 323 326 324 315 310 303 298 288 257 275 301 306 345 337 5 38 31 13 18 9 1 12 5 18 250 310 274 281 279 271 283 275 267 267 268 268
316 314 314 325 332 331 331 327 332 328 335 320 304 294 280 252 243 263 305 13 354 20 45 34 32 36 8 24 12 20 37 332 243 232 281 192 319 307 284 274 270 276 268
311 314 314 312 316 313 325 331 334 335 342 339 348 346 291 235 204 100 31 42 49 67 73 72 49 38 27 26 19 24 23 2 nan 339 244 224 312 312 306 293 286 284 285
307 311 309 307 314 307 307 330 336 346 348 360 340 354 351 nan 174 164 86 nan 84 84 79 63 56 46 28 32 17 29 17 354 nan 305 301 311 310 301 301 276 282 283 290
306 313 311 313 316 306 314 307 319 352 7 18 nan nan nan nan nan nan nan 112 119 116 92 72 49 42 34 14 26 40 11 11 320 nan 326 324 303 305 300 256 259 274 280
311 299 315 315 321 315 304 289 305 330 5 17 nan nan nan nan nan nan nan nan nan 112 83 64 13 13 40 7 25 39 76 47 28 nan 356 332 307 296 186 217 249 270 291
310 313 326 325 333 315 288 303 303 327 357 1 nan nan nan nan nan nan nan nan 189 115 115 44 7 17 35 15 49 324 121 26 53 23 23 6 342 359 171 161 195 320 310
302 306 301 292 289 300 300 279 287 317 338 359 359 358 359 nan nan nan nan 177 179 129 105 101 51 5 359 328 26 17 13 60 60 52 52 40 35 57 112 145 84 67 39
288 298 298 274 288 305 294 289 299 278 285 322 331 347 348 nan nan nan nan nan 176 nan 143 149 120 316 360 nan 16 13 12 30 nan 50 nan 74 62 60 68 59 63 56 50
221 267 281 272 269 272 282 277 280 278 276 291 315 332 333 329 353 12 nan nan nan 161 151 164 190 233 231 360 18 36 54 58 62 60 75 86 94 57 51 59 54 51 48
263 205 242 252 259 282 274 265 266 273 271 285 290 299 317 313 319 341 nan nan nan 187 201 174 247 229 77 22 350 359 18 36 43 45 37 125 118 75 60 51 56 45 49
300 220 221 206 211 261 247 261 271 291 282 282 291 302 307 295 309 nan nan nan nan 183 164 213 203 89 150 133 343 27 47 53 6 29 41 334 38 60 88 58 51 41 40
258 309 247 216 162 232 272 262 264 272 275 296 302 308 321 291 304 295 nan nan nan 158 140 239 199 114 91 164 344 252 212 147 288 340 345 34 76 72 21 41 81 68 42
11 233 nan 121 74 259 243 244 275 288 293 289 293 302 297 319 268 283 170 nan nan nan 114 75 211 161 184 197 246 261 271 298 105 255 274 331 61 62 333 117 111 128 108
149 138 128 101 243 246 249 307 312 296 318 312 317 306 306 323 337 206 167 161 nan nan 177 64 53 173 nan nan 261 236 231 209 235 261 254 239 237 237 140 335 36 93 142
nan 110 97 55 277 317 345 335 244 240 280 303 338 27 354 305 88 147 184 164 151 145 164 116 57 91 167 119 200 242 186 nan 195 188 237 246 220 230 196 227 282 220 155
58 82 87 303 320 10 354 28 223 65 34 48 49 50 33 101 140 154 164 nan 146 153 131 98 87 80 73 102 334 297 359 16 298 nan nan 200 212 216 220 233 231 229 198
91 76 2 337 360 335 326 19 31 52 39 31 79 48 72 71 89 109 127 143 144 145 130 106 106 113 27 301 334 nan 31 nan nan 24 nan nan 203 218 232 209 224 247 251
87 61 33 18 31 9 30 36 25 39 47 36 57 71 72 83 90 86 98 111 140 135 98 106 109 60 35 21 9 8 30 23 nan 11 nan 220 nan 207 216 255 261 235 230